Location: Eaton Estates
(41.3089°N, 82.0057°W)
Time: 04:16:09
(UTC+00:00)

In-Cosmos 22 - Visible Passes

Search period start: 17 October 2021 00:00
Search period end: 27 October 2021 00:00
Orbit: 784 x 877 km, 81.2° (Epoch: 16 October)

Date Brightness Start Highest point End Pass type
(mag) Time Alt. Az. Time Alt. Az. Time Alt. Az.
17 Oct 5.6 09:45:22 10° SSE 09:50:11 37° E 09:54:59 10° NNE visible
18 Oct 5.9 09:27:45 10° SSE 09:32:17 30° E 09:36:48 10° NNE visible
18 Oct 4.8 11:10:00 10° SW 11:14:41 31° WNW 11:19:22 10° N visible
19 Oct 6.3 09:10:15 10° SE 09:14:24 24° E 09:18:33 10° NE visible
19 Oct 4.5 10:51:43 10° SW 10:56:38 39° WNW 11:01:33 10° N visible
20 Oct 6.5 08:52:51 10° SE 08:56:31 19° E 09:00:12 10° NE visible
20 Oct 4.2 10:33:30 10° SSW 10:38:35 48° WNW 10:43:42 10° N visible
21 Oct 6.8 08:35:38 10° ESE 08:38:40 16° E 08:41:42 10° NE visible
21 Oct 4.0 10:15:22 10° SSW 10:20:34 59° WNW 10:25:49 10° N visible
22 Oct 7.0 08:18:45 10° ESE 08:20:50 12° E 08:22:55 10° ENE visible
22 Oct 3.9 09:57:18 10° SSW 10:02:34 74° W 10:07:52 10° N visible
23 Oct 3.9 09:41:12 23° S 09:44:35 90° ESE 09:49:55 10° N visible
24 Oct 4.2 09:25:24 52° SSE 09:26:37 73° E 09:31:54 10° NNE visible
24 Oct 5.7 11:07:06 10° W 11:09:44 14° WNW 11:12:24 10° NW visible
25 Oct 4.6 09:09:02 57° ENE 09:09:02 57° ENE 09:13:52 10° NNE visible
25 Oct 5.4 10:50:42 16° W 10:51:36 17° WNW 10:55:01 10° NNW visible
26 Oct 5.4 08:52:20 35° NE 08:52:20 35° NE 08:55:48 10° NNE visible
26 Oct 5.3 10:34:00 20° WNW 10:34:00 20° WNW 10:37:27 10° NNW visible
